Time,TemperatureF,DewpointF,PressureIn,WindDirection,WindDirectionDegrees,WindSpeedMPH,WindSpeedGustMPH,Humidity,HourlyPrecipIn,Conditions,Clouds,dailyrainin,SoftwareType,DateUTC
2013-10-29 00:00:00,52.7,51.3,30.28,SSE,155,0.0,0.0,95,0.00,,---,0.05,VWS V14.00,2013-10-29 04:00:00,
2013-10-29 00:01:00,52.7,51.3,30.28,SSE,155,0.0,0.0,95,0.00,,---,0.05,VWS V14.00,2013-10-29 04:01:00,
2013-10-29 00:06:00,52.7,51.3,30.28,SSE,155,0.0,0.0,95,0.00,,---,0.05,VWS V14.00,2013-10-29 04:06:00,
2013-10-29 00:11:00,52.7,51.3,30.27,SSE,155,0.0,0.0,95,0.00,,---,0.00,VWS V14.00,2013-10-29 04:11:00,
2013-10-29 00:16:00,52.6,51.2,30.27,SSE,155,0.0,0.0,95,0.00,,---,0.00,VWS V14.00,2013-10-29 04:16:00,
2013-10-29 00:21:00,52.6,51.2,30.27,SSE,155,0.0,0.0,95,0.00,,---,0.00,VWS V14.00,2013-10-29 04:21:00,
2013-10-29 00:26:00,52.6,51.2,30.27,SSE,155,0.0,0.0,95,0.00,,---,0.00,VWS V14.00,2013-10-29 04:26:00,
2013-10-29 00:31:00,52.6,51.2,30.27,SSE,155,0.0,0.0,95,0.00,,---,0.00,VWS V14.00,2013-10-29 04:31:00,
2013-10-29 00:36:00,52.6,51.2,30.27,SSE,155,0.0,0.0,95,0.00,,---,0.00,VWS V14.00,2013-10-29 04:36:00,
2013-10-29 00:41:00,52.6,51.2,30.27,SSE,155,0.0,0.0,95,0.00,,---,0.00,VWS V14.00,2013-10-29 04:41:00,
2013-10-29 00:46:00,52.6,51.2,30.27,SSE,155,0.0,0.0,95,0.00,,---,0.00,VWS V14.00,2013-10-29 04:46:00,
2013-10-29 00:51:00,52.6,51.2,30.27,SSE,155,0.0,0.0,95,0.00,,---,0.00,VWS V14.00,2013-10-29 04:51:00,
2013-10-29 00:56:00,52.5,51.1,30.26,SSE,155,0.0,0.0,95,0.00,,---,0.00,VWS V14.00,2013-10-29 04:56:00,
2013-10-29 01:01:00,52.5,51.1,30.26,SSE,155,0.0,0.0,95,0.00,,---,0.00,VWS V14.00,2013-10-29 05:01:00,
2013-10-29 01:06:00,52.5,51.1,30.26,SSE,155,0.0,0.0,95,0.00,,---,0.00,VWS V14.00,2013-10-29 05:06:00,
2013-10-29 01:11:00,52.5,51.1,30.26,SSE,155,0.0,0.0,95,0.00,,---,0.00,VWS V14.00,2013-10-29 05:11:00,
2013-10-29 01:16:00,52.5,51.1,30.25,SSE,155,0.0,0.0,95,0.00,,---,0.00,VWS V14.00,2013-10-29 05:16:00,
2013-10-29 01:21:00,52.5,51.1,30.25,SSE,155,0.0,0.0,95,0.00,,---,0.00,VWS V14.00,2013-10-29 05:21:00,
2013-10-29 01:26:00,52.5,51.1,30.25,SSE,155,0.0,0.0,95,0.00,,---,0.00,VWS V14.00,2013-10-29 05:26:00,
2013-10-29 01:31:00,52.4,51.0,30.25,SSE,155,0.0,0.0,95,0.00,,---,0.00,VWS V14.00,2013-10-29 05:31:00,
2013-10-29 01:36:00,52.4,51.0,30.25,SSE,155,0.0,0.0,95,0.00,,---,0.00,VWS V14.00,2013-10-29 05:36:00,
2013-10-29 01:41:00,52.4,51.0,30.25,SSE,155,0.0,0.0,95,0.00,,---,0.00,VWS V14.00,2013-10-29 05:41:00,
2013-10-29 01:46:00,52.4,51.0,30.25,SSE,155,0.0,0.0,95,0.00,,---,0.00,VWS V14.00,2013-10-29 05:46:00,
2013-10-29 01:51:00,52.4,51.0,30.26,SSE,155,0.0,0.0,95,0.00,,---,0.00,VWS V14.00,2013-10-29 05:51:00,
2013-10-29 01:56:00,52.4,51.0,30.26,SSE,155,0.0,0.0,95,0.00,,---,0.00,VWS V14.00,2013-10-29 05:56:00,
2013-10-29 02:01:00,52.4,51.0,30.26,SSE,155,0.0,0.0,95,0.00,,---,0.00,VWS V14.00,2013-10-29 06:01:00,
2013-10-29 02:06:00,52.3,50.9,30.26,SSE,155,0.0,0.0,95,0.00,,---,0.00,VWS V14.00,2013-10-29 06:06:00,
2013-10-29 02:11:00,52.3,50.9,30.27,SSE,155,0.0,0.0,95,0.00,,---,0.00,VWS V14.00,2013-10-29 06:11:00,
2013-10-29 02:16:00,52.3,50.9,30.27,SSE,155,0.0,0.0,95,0.00,,---,0.00,VWS V14.00,2013-10-29 06:16:00,
2013-10-29 02:21:00,52.4,51.0,30.27,SSE,155,0.0,0.0,95,0.00,,---,0.00,VWS V14.00,2013-10-29 06:21:00,
2013-10-29 02:26:00,52.3,50.9,30.27,SSE,155,0.0,0.0,95,0.00,,---,0.00,VWS V14.00,2013-10-29 06:26:00,
2013-10-29 02:31:00,52.3,50.9,30.27,SSE,155,0.0,0.0,95,0.00,,---,0.00,VWS V14.00,2013-10-29 06:31:00,
2013-10-29 02:36:00,52.3,50.9,30.27,SSE,155,0.0,0.0,95,0.00,,---,0.00,VWS V14.00,2013-10-29 06:36:00,
2013-10-29 02:41:00,52.3,50.9,30.27,SSE,155,0.0,0.0,95,0.00,,---,0.00,VWS V14.00,2013-10-29 06:41:00,
2013-10-29 02:46:00,52.3,50.9,30.27,SSE,155,0.0,0.0,95,0.00,,---,0.00,VWS V14.00,2013-10-29 06:46:00,
2013-10-29 02:51:00,52.3,50.9,30.27,SSE,155,0.0,0.0,95,0.00,,---,0.00,VWS V14.00,2013-10-29 06:51:00,
2013-10-29 02:56:00,52.3,50.9,30.28,SSE,155,0.0,0.0,95,0.00,,---,0.00,VWS V14.00,2013-10-29 06:56:00,
2013-10-29 03:01:00,52.2,50.8,30.28,SSE,155,0.0,0.0,95,0.00,,---,0.00,VWS V14.00,2013-10-29 07:01:00,
2013-10-29 03:06:00,52.1,50.7,30.28,SSE,155,0.0,0.0,95,0.00,,---,0.00,VWS V14.00,2013-10-29 07:06:00,
2013-10-29 03:11:00,51.9,50.5,30.27,SSE,155,0.0,0.0,95,0.00,,---,0.00,VWS V14.00,2013-10-29 07:11:00,
2013-10-29 03:16:00,51.8,50.4,30.27,SSE,155,0.0,0.0,95,0.00,,---,0.00,VWS V14.00,2013-10-29 07:16:00,
2013-10-29 03:21:00,51.6,50.2,30.27,SSE,155,0.0,0.0,95,0.00,,---,0.00,VWS V14.00,2013-10-29 07:21:00,
2013-10-29 03:26:00,51.5,50.1,30.27,SSE,155,0.0,0.0,95,0.00,,---,0.00,VWS V14.00,2013-10-29 07:26:00,
2013-10-29 03:31:00,51.3,49.9,30.27,SSE,155,0.0,0.0,95,0.00,,---,0.00,VWS V14.00,2013-10-29 07:31:00,
2013-10-29 03:36:00,51.1,49.7,30.27,SSE,155,0.0,1.0,95,0.00,,---,0.00,VWS V14.00,2013-10-29 07:36:00,
2013-10-29 03:41:00,51.0,49.6,30.27,SSE,155,0.0,0.0,95,0.00,,---,0.00,VWS V14.00,2013-10-29 07:41:00,
2013-10-29 03:46:00,50.9,49.5,30.27,SSE,155,0.0,0.0,95,0.00,,---,0.00,VWS V14.00,2013-10-29 07:46:00,
2013-10-29 03:51:00,50.8,49.4,30.28,SSE,155,0.0,0.0,95,0.00,,---,0.00,VWS V14.00,2013-10-29 07:51:00,
2013-10-29 03:56:00,50.6,49.2,30.28,SSE,155,0.0,0.0,95,0.00,,---,0.00,VWS V14.00,2013-10-29 07:56:00,
2013-10-29 04:01:00,50.6,49.2,30.28,SSE,155,0.0,0.0,95,0.00,,---,0.00,VWS V14.00,2013-10-29 08:01:00,
2013-10-29 04:06:00,50.5,49.1,30.28,SSE,155,0.0,0.0,95,0.00,,---,0.00,VWS V14.00,2013-10-29 08:06:00,
2013-10-29 04:11:00,50.5,49.1,30.29,SSE,155,0.0,0.0,95,0.00,,---,0.00,VWS V14.00,2013-10-29 08:11:00,
2013-10-29 04:16:00,50.4,49.0,30.30,SSE,155,0.0,0.0,95,0.00,,---,0.00,VWS V14.00,2013-10-29 08:16:00,
2013-10-29 04:21:00,50.4,49.0,30.30,SSE,155,0.0,0.0,95,0.00,,---,0.00,VWS V14.00,2013-10-29 08:21:00,
2013-10-29 04:26:00,50.3,48.9,30.30,SSE,155,0.0,0.0,95,0.00,,---,0.00,VWS V14.00,2013-10-29 08:26:00,
2013-10-29 04:31:00,50.1,48.7,30.30,SSE,155,0.0,0.0,95,0.00,,---,0.00,VWS V14.00,2013-10-29 08:31:00,
2013-10-29 04:36:00,50.1,48.7,30.29,SSE,155,0.0,0.0,95,0.00,,---,0.00,VWS V14.00,2013-10-29 08:36:00,
2013-10-29 04:41:00,50.1,48.7,30.29,SSE,155,0.0,0.0,95,0.00,,---,0.00,VWS V14.00,2013-10-29 08:41:00,
2013-10-29 04:46:00,50.1,49.0,30.29,SSE,155,0.0,0.0,96,0.00,,---,0.00,VWS V14.00,2013-10-29 08:46:00,
2013-10-29 04:51:00,50.0,48.9,30.29,SSE,155,0.0,0.0,96,0.00,,---,0.00,VWS V14.00,2013-10-29 08:51:00,
2013-10-29 04:56:00,49.9,48.8,30.29,SSE,155,0.0,0.0,96,0.00,,---,0.00,VWS V14.00,2013-10-29 08:56:00,
2013-10-29 05:01:00,49.8,48.7,30.29,SSE,155,0.0,0.0,96,0.00,,---,0.00,VWS V14.00,2013-10-29 09:01:00,
2013-10-29 05:06:00,49.6,48.5,30.28,SSE,155,0.0,0.0,96,0.00,,---,0.00,VWS V14.00,2013-10-29 09:06:00,
2013-10-29 05:11:00,49.6,48.5,30.29,SSE,155,0.0,0.0,96,0.00,,---,0.00,VWS V14.00,2013-10-29 09:11:00,
2013-10-29 05:16:00,49.6,48.5,30.30,SSE,155,0.0,0.0,96,0.00,,---,0.00,VWS V14.00,2013-10-29 09:16:00,
2013-10-29 05:21:00,49.5,48.4,30.31,SSE,155,0.0,0.0,96,0.00,,---,0.00,VWS V14.00,2013-10-29 09:21:00,
2013-10-29 05:26:00,49.4,48.3,30.30,SSE,155,0.0,0.0,96,0.00,,---,0.00,VWS V14.00,2013-10-29 09:26:00,
2013-10-29 05:31:00,49.3,48.2,30.31,SSE,155,0.0,0.0,96,0.00,,---,0.00,VWS V14.00,2013-10-29 09:31:00,
2013-10-29 05:36:00,49.2,48.1,30.31,SSE,155,0.0,0.0,96,0.00,,---,0.00,VWS V14.00,2013-10-29 09:36:00,
2013-10-29 05:41:00,49.3,48.2,30.31,SSE,155,0.0,0.0,96,0.00,,---,0.00,VWS V14.00,2013-10-29 09:41:00,
2013-10-29 05:46:00,49.3,48.2,30.32,SSE,155,0.0,0.0,96,0.00,,---,0.00,VWS V14.00,2013-10-29 09:46:00,
2013-10-29 05:51:00,49.4,48.3,30.32,SSE,155,0.0,0.0,96,0.00,,---,0.00,VWS V14.00,2013-10-29 09:51:00,
2013-10-29 05:56:00,49.3,48.2,30.32,SSE,155,0.0,0.0,96,0.00,,---,0.00,VWS V14.00,2013-10-29 09:56:00,
2013-10-29 06:01:00,49.3,48.2,30.32,SSE,155,0.0,0.0,96,0.00,,---,0.00,VWS V14.00,2013-10-29 10:01:00,
2013-10-29 06:06:00,49.3,48.2,30.32,SSE,155,0.0,0.0,96,0.00,,---,0.00,VWS V14.00,2013-10-29 10:06:00,
2013-10-29 06:11:00,49.2,48.1,30.33,SSE,155,0.0,0.0,96,0.00,,---,0.00,VWS V14.00,2013-10-29 10:11:00,
2013-10-29 06:16:00,49.3,48.2,30.32,SSE,155,0.0,0.0,96,0.00,,---,0.00,VWS V14.00,2013-10-29 10:16:00,
2013-10-29 06:21:00,49.3,48.2,30.33,SSE,155,0.0,0.0,96,0.00,,---,0.00,VWS V14.00,2013-10-29 10:21:00,
2013-10-29 06:26:00,49.3,48.2,30.33,SSE,155,0.0,0.0,96,0.00,,---,0.00,VWS V14.00,2013-10-29 10:26:00,
2013-10-29 06:31:00,49.3,48.2,30.33,SSE,155,0.0,0.0,96,0.00,,---,0.00,VWS V14.00,2013-10-29 10:31:00,
2013-10-29 06:36:00,49.3,48.2,30.34,SSE,155,0.0,0.0,96,0.00,,---,0.00,VWS V14.00,2013-10-29 10:36:00,
2013-10-29 06:41:00,49.3,48.5,30.34,SSE,155,0.0,0.0,97,0.00,,---,0.00,VWS V14.00,2013-10-29 10:41:00,
2013-10-29 06:46:00,49.3,48.5,30.34,SSE,155,0.0,0.0,97,0.00,,---,0.00,VWS V14.00,2013-10-29 10:46:00,
2013-10-29 06:51:00,49.3,48.5,30.34,SSE,155,0.0,0.0,97,0.00,,---,0.00,VWS V14.00,2013-10-29 10:51:00,
2013-10-29 06:56:00,49.3,48.5,30.34,SSE,155,0.0,0.0,97,0.00,,---,0.00,VWS V14.00,2013-10-29 10:56:00,
2013-10-29 07:01:00,49.4,48.6,30.34,SSE,155,0.0,0.0,97,0.00,,---,0.00,VWS V14.00,2013-10-29 11:01:00,
2013-10-29 07:06:00,49.4,48.6,30.34,SSE,155,0.0,0.0,97,0.00,,---,0.00,VWS V14.00,2013-10-29 11:06:00,
2013-10-29 07:11:00,49.4,48.6,30.34,SSE,155,0.0,0.0,97,0.00,,---,0.00,VWS V14.00,2013-10-29 11:11:00,
2013-10-29 07:16:00,49.4,48.6,30.34,SSE,155,0.0,0.0,97,0.00,,---,0.00,VWS V14.00,2013-10-29 11:16:00,
2013-10-29 07:21:00,49.4,48.6,30.34,SSE,155,0.0,0.0,97,0.00,,---,0.00,VWS V14.00,2013-10-29 11:21:00,
2013-10-29 07:26:00,49.3,48.5,30.34,SSE,155,0.0,0.0,97,0.00,,---,0.00,VWS V14.00,2013-10-29 11:26:00,
2013-10-29 07:31:00,49.3,48.5,30.34,SSE,155,0.0,0.0,97,0.00,,---,0.00,VWS V14.00,2013-10-29 11:31:00,
2013-10-29 07:36:00,49.3,48.5,30.35,SSE,155,0.0,0.0,97,0.00,,---,0.00,VWS V14.00,2013-10-29 11:36:00,
2013-10-29 07:41:00,49.2,48.4,30.35,SSE,155,0.0,0.0,97,0.00,,---,0.00,VWS V14.00,2013-10-29 11:41:00,
2013-10-29 07:46:00,49.2,48.4,30.34,SSE,155,0.0,0.0,97,0.00,,---,0.00,VWS V14.00,2013-10-29 11:46:00,
2013-10-29 07:51:00,49.2,48.4,30.35,SSE,155,0.0,0.0,97,0.00,,---,0.00,VWS V14.00,2013-10-29 11:51:00,
2013-10-29 07:56:00,49.3,48.5,30.35,SSE,155,0.0,0.0,97,0.00,,---,0.00,VWS V14.00,2013-10-29 11:56:00,
2013-10-29 08:01:00,49.4,48.6,30.35,SSE,155,0.0,0.0,97,0.00,,---,0.00,VWS V14.00,2013-10-29 12:01:00,
2013-10-29 08:06:00,49.4,48.6,30.35,SSE,155,0.0,0.0,97,0.00,,---,0.00,VWS V14.00,2013-10-29 12:06:00,
2013-10-29 08:11:00,49.4,48.6,30.35,SSE,155,0.0,0.0,97,0.00,,---,0.00,VWS V14.00,2013-10-29 12:11:00,
2013-10-29 08:16:00,49.4,48.6,30.35,SSE,155,0.0,0.0,97,0.00,,---,0.00,VWS V14.00,2013-10-29 12:16:00,
2013-10-29 08:21:00,49.4,48.6,30.36,SSE,155,0.0,0.0,97,0.00,,---,0.00,VWS V14.00,2013-10-29 12:21:00,
2013-10-29 08:26:00,49.4,48.6,30.35,SSE,155,0.0,0.0,97,0.00,,---,0.00,VWS V14.00,2013-10-29 12:26:00,
2013-10-29 08:31:00,49.4,48.6,30.36,SSE,155,0.0,0.0,97,0.00,,---,0.00,VWS V14.00,2013-10-29 12:31:00,
2013-10-29 08:36:00,49.4,48.6,30.35,SSE,155,0.0,0.0,97,0.00,,---,0.00,VWS V14.00,2013-10-29 12:36:00,
2013-10-29 08:41:00,49.4,48.6,30.35,SSE,155,0.0,0.0,97,0.00,,---,0.00,VWS V14.00,2013-10-29 12:41:00,
2013-10-29 08:46:00,49.5,48.7,30.35,SSE,155,0.0,0.0,97,0.00,,---,0.00,VWS V14.00,2013-10-29 12:46:00,
2013-10-29 08:51:00,49.6,48.8,30.35,SSE,155,0.0,0.0,97,0.00,,---,0.00,VWS V14.00,2013-10-29 12:51:00,
2013-10-29 08:56:00,49.6,48.8,30.35,SSE,155,0.0,0.0,97,0.00,,---,0.00,VWS V14.00,2013-10-29 12:56:00,
2013-10-29 09:01:00,49.6,48.8,30.36,SSE,155,0.0,0.0,97,0.00,,---,0.00,VWS V14.00,2013-10-29 13:01:00,
2013-10-29 09:06:00,49.7,48.9,30.36,SSE,155,0.0,0.0,97,0.00,,---,0.00,VWS V14.00,2013-10-29 13:06:00,
2013-10-29 09:11:00,49.8,49.0,30.37,SSE,155,0.0,0.0,97,0.00,,---,0.00,VWS V14.00,2013-10-29 13:11:00,
2013-10-29 09:16:00,49.9,49.1,30.37,SSE,155,0.0,0.0,97,0.00,,---,0.00,VWS V14.00,2013-10-29 13:16:00,
2013-10-29 09:21:00,49.9,49.1,30.37,SSE,155,0.0,0.0,97,0.00,,---,0.00,VWS V14.00,2013-10-29 13:21:00,
2013-10-29 09:26:00,50.0,49.2,30.37,SSE,155,0.0,0.0,97,0.00,,---,0.00,VWS V14.00,2013-10-29 13:26:00,
2013-10-29 09:31:00,50.3,49.5,30.37,SSE,155,0.0,0.0,97,0.00,,---,0.00,VWS V14.00,2013-10-29 13:31:00,
2013-10-29 09:36:00,50.4,49.9,30.37,SSE,155,0.0,1.0,98,0.00,,---,0.00,VWS V14.00,2013-10-29 13:36:00,
2013-10-29 09:41:00,50.5,50.0,30.37,SSE,155,0.0,0.0,98,0.00,,---,0.00,VWS V14.00,2013-10-29 13:41:00,
2013-10-29 09:46:00,50.5,49.7,30.36,SSE,155,0.0,1.0,97,0.00,,---,0.00,VWS V14.00,2013-10-29 13:46:00,
2013-10-29 09:51:00,50.5,49.7,30.36,SSE,155,0.0,1.0,97,0.00,,---,0.00,VWS V14.00,2013-10-29 13:51:00,
2013-10-29 09:56:00,50.6,49.8,30.36,SSE,155,0.0,1.0,97,0.00,,---,0.00,VWS V14.00,2013-10-29 13:56:00,
2013-10-29 10:01:00,50.8,50.0,30.36,SSE,155,0.0,1.0,97,0.00,,---,0.00,VWS V14.00,2013-10-29 14:01:00,
2013-10-29 10:06:00,50.8,50.0,30.36,SSE,155,0.0,1.0,97,0.00,,---,0.00,VWS V14.00,2013-10-29 14:06:00,
2013-10-29 10:11:00,50.8,50.0,30.36,SSE,155,0.0,1.0,97,0.00,,---,0.00,VWS V14.00,2013-10-29 14:11:00,
2013-10-29 10:16:00,50.8,50.0,30.36,SSE,155,0.0,1.0,97,0.00,,---,0.00,VWS V14.00,2013-10-29 14:16:00,
2013-10-29 10:21:00,50.9,50.1,30.36,SSE,155,0.0,1.0,97,0.00,,---,0.00,VWS V14.00,2013-10-29 14:21:00,
2013-10-29 10:26:00,51.0,50.2,30.36,SSE,163,0.0,1.0,97,0.00,,---,0.00,VWS V14.00,2013-10-29 14:26:00,
2013-10-29 10:31:00,51.2,50.4,30.36,SSE,163,0.0,1.0,97,0.00,,---,0.00,VWS V14.00,2013-10-29 14:31:00,
2013-10-29 10:36:00,51.2,50.4,30.37,NW,306,0.0,1.0,97,0.00,,---,0.00,VWS V14.00,2013-10-29 14:36:00,
2013-10-29 10:41:00,51.2,50.1,30.37,SSW,194,3.0,3.0,96,0.00,,---,0.00,VWS V14.00,2013-10-29 14:41:00,
2013-10-29 10:46:00,51.3,50.2,30.37,NNW,327,0.0,3.0,96,0.00,,---,0.00,VWS V14.00,2013-10-29 14:46:00,
2013-10-29 10:51:00,51.3,50.2,30.38,NNW,327,0.0,3.0,96,0.00,,---,0.00,VWS V14.00,2013-10-29 14:51:00,
2013-10-29 10:56:00,51.5,50.1,30.38,NNW,327,0.0,3.0,95,0.00,,---,0.00,VWS V14.00,2013-10-29 14:56:00,
2013-10-29 11:01:00,51.7,50.3,30.38,NNW,327,0.0,3.0,95,0.00,,---,0.00,VWS V14.00,2013-10-29 15:01:00,
2013-10-29 11:06:00,52.0,50.6,30.38,ESE,123,0.0,3.0,95,0.00,,---,0.00,VWS V14.00,2013-10-29 15:06:00,
2013-10-29 11:11:00,52.2,50.5,30.38,ESE,122,0.0,0.0,94,0.00,,---,0.00,VWS V14.00,2013-10-29 15:11:00,
2013-10-29 11:16:00,52.5,50.8,30.38,ESE,123,0.0,0.0,94,0.00,,---,0.00,VWS V14.00,2013-10-29 15:16:00,
2013-10-29 11:21:00,52.7,51.0,30.37,SE,138,0.0,1.0,94,0.00,,---,0.00,VWS V14.00,2013-10-29 15:21:00,
2013-10-29 11:26:00,53.2,51.5,30.37,SE,134,0.0,1.0,94,0.00,,---,0.00,VWS V14.00,2013-10-29 15:26:00,
2013-10-29 11:31:00,53.5,51.5,30.37,NE,44,0.0,2.0,93,0.00,,---,0.00,VWS V14.00,2013-10-29 15:31:00,
2013-10-29 11:36:00,54.0,51.7,30.37,NE,44,0.0,2.0,92,0.00,,---,0.00,VWS V14.00,2013-10-29 15:36:00,
2013-10-29 11:41:00,54.4,51.8,30.37,SE,128,0.0,1.0,91,0.00,,---,0.00,VWS V14.00,2013-10-29 15:41:00,
2013-10-29 11:46:00,55.1,52.2,30.36,SSE,154,0.0,1.0,90,0.00,,---,0.00,VWS V14.00,2013-10-29 15:46:00,
2013-10-29 11:51:00,55.9,52.7,30.36,South,176,0.0,3.0,89,0.00,,---,0.00,VWS V14.00,2013-10-29 15:51:00,
2013-10-29 11:56:00,56.4,52.6,30.35,ESE,105,0.0,3.0,87,0.00,,---,0.00,VWS V14.00,2013-10-29 15:56:00,
2013-10-29 12:01:00,57.3,53.2,30.35,SSE,155,0.0,4.0,86,0.00,,---,0.00,VWS V14.00,2013-10-29 16:01:00,
2013-10-29 12:06:00,58.2,53.1,30.34,South,171,0.0,4.0,83,0.00,,---,0.00,VWS V14.00,2013-10-29 16:06:00,
2013-10-29 12:11:00,59.0,53.8,30.34,SSE,165,3.0,5.0,83,0.00,,---,0.00,VWS V14.00,2013-10-29 16:11:00,
2013-10-29 12:16:00,59.0,53.2,30.34,SE,146,0.0,5.0,81,0.00,,---,0.00,VWS V14.00,2013-10-29 16:16:00,
2013-10-29 12:21:00,59.6,54.1,30.33,SSE,149,1.0,5.0,82,0.00,,---,0.00,VWS V14.00,2013-10-29 16:21:00,
2013-10-29 12:26:00,60.6,53.7,30.33,SE,133,0.0,5.0,78,0.00,,---,0.00,VWS V14.00,2013-10-29 16:26:00,
2013-10-29 12:31:00,61.2,53.6,30.33,ESE,122,0.0,5.0,76,0.00,,---,0.00,VWS V14.00,2013-10-29 16:31:00,
2013-10-29 12:36:00,61.3,53.0,30.33,NE,55,2.0,5.0,74,0.00,,---,0.00,VWS V14.00,2013-10-29 16:36:00,
2013-10-29 12:41:00,61.8,53.8,30.32,SSE,148,0.0,3.0,75,0.00,,---,0.00,VWS V14.00,2013-10-29 16:41:00,
2013-10-29 12:46:00,62.3,53.5,30.32,South,173,0.0,3.0,73,0.00,,---,0.00,VWS V14.00,2013-10-29 16:46:00,
2013-10-29 12:51:00,62.3,53.5,30.32,South,173,0.0,3.0,73,0.00,,---,0.00,VWS V14.00,2013-10-29 16:51:00,
2013-10-29 12:56:00,62.2,53.5,30.32,South,171,3.0,4.0,73,0.00,,---,0.00,VWS V14.00,2013-10-29 16:56:00,
2013-10-29 13:01:00,62.1,53.7,30.32,South,171,0.0,4.0,74,0.00,,---,0.00,VWS V14.00,2013-10-29 17:01:00,
2013-10-29 13:06:00,62.3,53.2,30.32,South,171,0.0,4.0,72,0.00,,---,0.00,VWS V14.00,2013-10-29 17:06:00,
2013-10-29 13:11:00,62.3,52.4,30.32,South,171,0.0,4.0,70,0.00,,---,0.00,VWS V14.00,2013-10-29 17:11:00,
2013-10-29 13:16:00,62.4,52.9,30.32,South,171,0.0,4.0,71,0.00,,---,0.00,VWS V14.00,2013-10-29 17:16:00,
2013-10-29 13:21:00,62.6,53.5,30.32,South,171,0.0,4.0,72,0.00,,---,0.00,VWS V14.00,2013-10-29 17:21:00,
2013-10-29 13:26:00,62.7,52.4,30.31,South,172,0.0,4.0,69,0.00,,---,0.00,VWS V14.00,2013-10-29 17:26:00,
2013-10-29 13:31:00,62.8,52.5,30.31,SSE,168,0.0,4.0,69,0.00,,---,0.00,VWS V14.00,2013-10-29 17:31:00,
2013-10-29 13:36:00,63.0,52.7,30.31,SE,141,1.0,4.0,69,0.00,,---,0.00,VWS V14.00,2013-10-29 17:36:00,
2013-10-29 13:41:00,63.2,52.1,30.31,ESE,121,0.0,1.0,67,0.00,,---,0.00,VWS V14.00,2013-10-29 17:41:00,
2013-10-29 13:46:00,63.2,52.9,30.30,SSE,152,0.0,4.0,69,0.00,,---,0.00,VWS V14.00,2013-10-29 17:46:00,
2013-10-29 13:51:00,63.6,52.5,30.29,SSE,155,0.0,4.0,67,0.00,,---,0.00,VWS V14.00,2013-10-29 17:51:00,
2013-10-29 13:56:00,63.8,53.0,30.28,SSE,153,0.0,4.0,68,0.00,,---,0.00,VWS V14.00,2013-10-29 17:56:00,
2013-10-29 14:01:00,64.5,52.5,30.28,South,180,0.0,4.0,65,0.00,,---,0.00,VWS V14.00,2013-10-29 18:01:00,
2013-10-29 14:06:00,65.0,52.5,30.27,ESE,114,0.0,4.0,64,0.00,,---,0.00,VWS V14.00,2013-10-29 18:06:00,
2013-10-29 14:11:00,65.7,53.2,30.27,South,180,0.0,4.0,64,0.00,,---,0.00,VWS V14.00,2013-10-29 18:11:00,
2013-10-29 14:16:00,66.7,53.7,30.27,SE,140,0.0,7.0,63,0.00,,---,0.00,VWS V14.00,2013-10-29 18:16:00,
2013-10-29 14:21:00,67.5,53.6,30.27,SSW,193,0.0,7.0,61,0.00,,---,0.00,VWS V14.00,2013-10-29 18:21:00,
2013-10-29 14:26:00,67.8,52.5,30.26,SSW,206,0.0,7.0,58,0.00,,---,0.00,VWS V14.00,2013-10-29 18:26:00,
2013-10-29 14:31:00,67.7,52.9,30.26,SSE,160,0.0,7.0,59,0.00,,---,0.00,VWS V14.00,2013-10-29 18:31:00,
2013-10-29 14:36:00,67.9,52.1,30.26,SE,125,0.0,7.0,57,0.00,,---,0.00,VWS V14.00,2013-10-29 18:36:00,
2013-10-29 14:41:00,67.6,52.3,30.26,NW,325,0.0,5.0,58,0.00,,---,0.00,VWS V14.00,2013-10-29 18:41:00,
2013-10-29 14:46:00,67.0,51.8,30.26,SE,131,0.0,5.0,58,0.00,,---,0.00,VWS V14.00,2013-10-29 18:46:00,
2013-10-29 14:51:00,66.1,52.3,30.26,SE,138,1.0,5.0,61,0.00,,---,0.00,VWS V14.00,2013-10-29 18:51:00,
2013-10-29 14:56:00,66.3,51.6,30.25,SE,140,0.0,5.0,59,0.00,,---,0.00,VWS V14.00,2013-10-29 18:56:00,
2013-10-29 15:01:00,66.7,51.9,30.25,SE,140,0.0,5.0,59,0.00,,---,0.00,VWS V14.00,2013-10-29 19:01:00,
2013-10-29 15:06:00,66.7,51.9,30.25,SE,138,0.0,5.0,59,0.00,,---,0.00,VWS V14.00,2013-10-29 19:06:00,
2013-10-29 15:11:00,67.6,52.8,30.24,SE,138,0.0,1.0,59,0.00,,---,0.00,VWS V14.00,2013-10-29 19:11:00,
2013-10-29 15:16:00,68.0,52.7,30.24,SE,138,0.0,1.0,58,0.00,,---,0.00,VWS V14.00,2013-10-29 19:16:00,
2013-10-29 15:21:00,67.7,52.4,30.25,SE,143,0.0,3.0,58,0.00,,---,0.00,VWS V14.00,2013-10-29 19:21:00,
2013-10-29 15:26:00,67.3,52.0,30.25,SSE,153,0.0,4.0,58,0.00,,---,0.00,VWS V14.00,2013-10-29 19:26:00,
2013-10-29 15:31:00,67.0,52.2,30.25,SSE,154,0.0,4.0,59,0.00,,---,0.00,VWS V14.00,2013-10-29 19:31:00,
2013-10-29 15:36:00,66.6,51.4,30.24,SE,145,1.0,5.0,58,0.00,,---,0.00,VWS V14.00,2013-10-29 19:36:00,
2013-10-29 15:41:00,66.2,51.5,30.25,SSE,148,0.0,0.0,59,0.00,,---,0.00,VWS V14.00,2013-10-29 19:41:00,
2013-10-29 15:46:00,65.9,50.7,30.25,SSW,198,0.0,3.0,58,0.00,,---,0.00,VWS V14.00,2013-10-29 19:46:00,
2013-10-29 15:51:00,65.6,51.4,30.25,SSW,196,0.0,3.0,60,0.00,,---,0.00,VWS V14.00,2013-10-29 19:51:00,
2013-10-29 15:56:00,65.4,51.2,30.25,East,82,0.0,3.0,60,0.00,,---,0.00,VWS V14.00,2013-10-29 19:56:00,
2013-10-29 16:01:00,65.2,51.4,30.25,West,261,0.0,4.0,61,0.00,,---,0.00,VWS V14.00,2013-10-29 20:01:00,
2013-10-29 16:06:00,65.1,51.3,30.25,SSE,157,0.0,5.0,61,0.00,,---,0.00,VWS V14.00,2013-10-29 20:06:00,
2013-10-29 16:11:00,65.0,51.7,30.26,SSE,157,0.0,3.0,62,0.00,,---,0.00,VWS V14.00,2013-10-29 20:11:00,
2013-10-29 16:16:00,65.1,51.8,30.26,SSE,157,0.0,3.0,62,0.00,,---,0.00,VWS V14.00,2013-10-29 20:16:00,
2013-10-29 16:21:00,65.2,52.7,30.26,SSE,157,0.0,3.0,64,0.00,,---,0.00,VWS V14.00,2013-10-29 20:21:00,
2013-10-29 16:26:00,65.3,52.8,30.26,SSE,157,0.0,4.0,64,0.00,,---,0.00,VWS V14.00,2013-10-29 20:26:00,
2013-10-29 16:31:00,65.4,52.1,30.26,SSE,157,0.0,4.0,62,0.00,,---,0.00,VWS V14.00,2013-10-29 20:31:00,
2013-10-29 16:36:00,65.6,53.1,30.25,SSE,157,0.0,4.0,64,0.00,,---,0.00,VWS V14.00,2013-10-29 20:36:00,
2013-10-29 16:41:00,65.6,51.8,30.25,SSE,157,0.0,1.0,61,0.00,,---,0.00,VWS V14.00,2013-10-29 20:41:00,
2013-10-29 16:46:00,65.7,52.8,30.25,SSE,157,0.0,1.0,63,0.00,,---,0.00,VWS V14.00,2013-10-29 20:46:00,
2013-10-29 16:51:00,65.9,52.5,30.25,SSE,157,0.0,1.0,62,0.00,,---,0.00,VWS V14.00,2013-10-29 20:51:00,
2013-10-29 16:56:00,65.8,52.0,30.26,SSE,157,0.0,1.0,61,0.00,,---,0.00,VWS V14.00,2013-10-29 20:56:00,
2013-10-29 17:01:00,65.8,52.0,30.26,SSE,157,0.0,1.0,61,0.00,,---,0.00,VWS V14.00,2013-10-29 21:01:00,
2013-10-29 17:06:00,65.8,52.0,30.25,SSE,157,0.0,1.0,61,0.00,,---,0.00,VWS V14.00,2013-10-29 21:06:00,
2013-10-29 17:11:00,65.6,52.2,30.26,SSE,157,0.0,0.0,62,0.00,,---,0.00,VWS V14.00,2013-10-29 21:11:00,
2013-10-29 17:16:00,65.4,52.1,30.26,SSE,157,0.0,1.0,62,0.00,,---,0.00,VWS V14.00,2013-10-29 21:16:00,
2013-10-29 17:21:00,65.2,52.7,30.26,SSE,157,0.0,1.0,64,0.00,,---,0.00,VWS V14.00,2013-10-29 21:21:00,
2013-10-29 17:26:00,64.8,52.3,30.26,SSE,157,0.0,1.0,64,0.00,,---,0.00,VWS V14.00,2013-10-29 21:26:00,
2013-10-29 17:31:00,64.3,52.3,30.26,SSE,157,0.0,1.0,65,0.00,,---,0.00,VWS V14.00,2013-10-29 21:31:00,
2013-10-29 17:36:00,64.0,53.2,30.25,SSE,157,0.0,1.0,68,0.00,,---,0.00,VWS V14.00,2013-10-29 21:36:00,
2013-10-29 17:40:00,63.5,52.4,30.26,SSE,157,0.0,0.0,67,0.00,,---,0.00,VWS V14.00,2013-10-29 21:40:00,
2013-10-29 17:45:00,63.1,52.4,30.26,SSE,157,0.0,0.0,68,0.00,,---,0.00,VWS V14.00,2013-10-29 21:45:00,
2013-10-29 17:51:00,62.7,52.0,30.26,SSE,157,0.0,0.0,68,0.00,,---,0.00,VWS V14.00,2013-10-29 21:51:00,
2013-10-29 17:56:00,62.3,51.6,30.27,SSE,157,0.0,0.0,68,0.00,,---,0.00,VWS V14.00,2013-10-29 21:56:00,
2013-10-29 18:00:00,62.0,51.3,30.27,SSE,157,0.0,0.0,68,0.00,,---,0.00,VWS V14.00,2013-10-29 22:00:00,
2013-10-29 18:05:00,61.9,51.6,30.27,SSE,157,0.0,0.0,69,0.00,,---,0.00,VWS V14.00,2013-10-29 22:05:00,
2013-10-29 18:10:00,61.7,51.8,30.27,SSE,157,0.0,0.0,70,0.00,,---,0.00,VWS V14.00,2013-10-29 22:10:00,
2013-10-29 18:15:00,61.6,51.7,30.28,SSE,157,0.0,0.0,70,0.00,,---,0.00,VWS V14.00,2013-10-29 22:15:00,
2013-10-29 18:20:00,61.4,51.9,30.28,SSE,157,0.0,0.0,71,0.00,,---,0.00,VWS V14.00,2013-10-29 22:20:00,
2013-10-29 18:25:00,61.3,51.8,30.28,SSE,157,0.0,0.0,71,0.00,,---,0.00,VWS V14.00,2013-10-29 22:25:00,
2013-10-29 18:30:00,61.2,51.7,30.28,SSE,157,0.0,0.0,71,0.00,,---,0.00,VWS V14.00,2013-10-29 22:30:00,
2013-10-29 18:35:00,61.1,52.0,30.28,SSE,157,0.0,0.0,72,0.00,,---,0.00,VWS V14.00,2013-10-29 22:35:00,
2013-10-29 18:40:00,60.9,51.8,30.27,SSE,157,0.0,0.0,72,0.00,,---,0.00,VWS V14.00,2013-10-29 22:40:00,
2013-10-29 18:45:00,60.7,51.6,30.27,SSE,157,0.0,0.0,72,0.00,,---,0.00,VWS V14.00,2013-10-29 22:45:00,
2013-10-29 18:50:00,60.5,51.4,30.27,SSE,157,0.0,0.0,72,0.00,,---,0.00,VWS V14.00,2013-10-29 22:50:00,
2013-10-29 18:55:00,60.4,51.7,30.28,SSE,157,0.0,0.0,73,0.00,,---,0.00,VWS V14.00,2013-10-29 22:55:00,
2013-10-29 19:00:00,60.1,51.4,30.28,SSE,157,0.0,1.0,73,0.00,,---,0.00,VWS V14.00,2013-10-29 23:00:00,
2013-10-29 19:05:00,59.8,51.5,30.28,SSE,157,0.0,1.0,74,0.00,,---,0.00,VWS V14.00,2013-10-29 23:05:00,
2013-10-29 19:10:00,59.6,51.3,30.29,SSE,157,0.0,0.0,74,0.00,,---,0.00,VWS V14.00,2013-10-29 23:10:00,
2013-10-29 19:15:00,59.3,51.4,30.29,SSE,157,0.0,1.0,75,0.00,,---,0.00,VWS V14.00,2013-10-29 23:15:00,
2013-10-29 19:20:00,59.1,51.2,30.28,SSE,157,0.0,1.0,75,0.00,,---,0.00,VWS V14.00,2013-10-29 23:20:00,
2013-10-29 19:25:00,59.0,51.5,30.29,SSE,157,0.0,1.0,76,0.00,,---,0.00,VWS V14.00,2013-10-29 23:25:00,
2013-10-29 19:30:00,59.0,51.5,30.29,SSE,157,0.0,1.0,76,0.00,,---,0.00,VWS V14.00,2013-10-29 23:30:00,
2013-10-29 19:35:00,59.0,51.8,30.29,SSE,157,0.0,1.0,77,0.00,,---,0.00,VWS V14.00,2013-10-29 23:35:00,
2013-10-29 19:40:00,59.0,51.8,30.29,SSE,157,0.0,0.0,77,0.00,,---,0.00,VWS V14.00,2013-10-29 23:40:00,
2013-10-29 19:45:00,59.0,51.8,30.29,SSE,157,0.0,0.0,77,0.00,,---,0.00,VWS V14.00,2013-10-29 23:45:00,
2013-10-29 19:50:00,59.0,51.8,30.29,SSE,157,0.0,0.0,77,0.00,,---,0.00,VWS V14.00,2013-10-29 23:50:00,
2013-10-29 19:55:00,59.0,51.8,30.29,SSE,157,0.0,1.0,77,0.00,,---,0.00,VWS V14.00,2013-10-29 23:55:00,
2013-10-29 20:00:00,59.0,52.2,30.29,SSE,157,0.0,1.0,78,0.00,,---,0.00,VWS V14.00,2013-10-30 00:00:00,
2013-10-29 20:05:00,59.0,52.2,30.29,SSE,157,0.0,1.0,78,0.00,,---,0.00,VWS V14.00,2013-10-30 00:05:00,
2013-10-29 20:10:00,59.0,52.2,30.29,SSE,157,0.0,0.0,78,0.00,,---,0.00,VWS V14.00,2013-10-30 00:10:00,
2013-10-29 20:15:00,58.9,52.4,30.29,SSE,157,0.0,0.0,79,0.00,,---,0.00,VWS V14.00,2013-10-30 00:15:00,
2013-10-29 20:20:00,58.8,52.3,30.28,SSE,157,0.0,0.0,79,0.00,,---,0.00,VWS V14.00,2013-10-30 00:20:00,
2013-10-29 20:25:00,58.8,52.3,30.29,SSE,157,0.0,0.0,79,0.00,,---,0.00,VWS V14.00,2013-10-30 00:25:00,
2013-10-29 20:30:00,58.7,52.2,30.28,SSE,157,0.0,0.0,79,0.00,,---,0.00,VWS V14.00,2013-10-30 00:30:00,
2013-10-29 20:35:00,58.7,52.2,30.28,SSE,157,0.0,1.0,79,0.00,,---,0.00,VWS V14.00,2013-10-30 00:35:00,
2013-10-29 20:40:00,58.6,52.1,30.28,SSE,157,0.0,1.0,79,0.00,,---,0.00,VWS V14.00,2013-10-30 00:40:00,
2013-10-29 20:45:00,58.4,52.3,30.28,SSE,157,0.0,1.0,80,0.00,,---,0.00,VWS V14.00,2013-10-30 00:45:00,
2013-10-29 20:50:00,58.3,52.2,30.28,SSE,157,0.0,1.0,80,0.00,,---,0.00,VWS V14.00,2013-10-30 00:50:00,
2013-10-29 20:55:00,58.2,52.1,30.28,SSE,157,0.0,1.0,80,0.00,,---,0.00,VWS V14.00,2013-10-30 00:55:00,
2013-10-29 21:00:00,58.1,52.0,30.28,SSE,157,0.0,1.0,80,0.00,,---,0.00,VWS V14.00,2013-10-30 01:00:00,
2013-10-29 21:05:00,58.0,52.2,30.28,SSE,157,0.0,1.0,81,0.00,,---,0.00,VWS V14.00,2013-10-30 01:05:00,
2013-10-29 21:10:00,57.9,52.1,30.28,SSE,157,0.0,0.0,81,0.00,,---,0.00,VWS V14.00,2013-10-30 01:10:00,
2013-10-29 21:15:00,57.8,52.0,30.28,SSE,157,0.0,0.0,81,0.00,,---,0.00,VWS V14.00,2013-10-30 01:15:00,
2013-10-29 21:20:00,57.7,51.9,30.28,SSE,157,0.0,0.0,81,0.00,,---,0.00,VWS V14.00,2013-10-30 01:20:00,
2013-10-29 21:25:00,57.5,51.7,30.28,SSE,157,0.0,1.0,81,0.00,,---,0.00,VWS V14.00,2013-10-30 01:25:00,
2013-10-29 21:30:00,57.3,51.5,30.27,North,10,0.0,1.0,81,0.00,,---,0.00,VWS V14.00,2013-10-30 01:30:00,
2013-10-29 21:35:00,57.2,51.4,30.28,North,10,0.0,1.0,81,0.00,,---,0.00,VWS V14.00,2013-10-30 01:35:00,
2013-10-29 21:40:00,57.2,51.4,30.28,North,360,0.0,2.0,81,0.00,,---,0.00,VWS V14.00,2013-10-30 01:40:00,
2013-10-29 21:45:00,57.2,51.8,30.29,North,360,0.0,2.0,82,0.00,,---,0.00,VWS V14.00,2013-10-30 01:45:00,
2013-10-29 21:50:00,57.1,51.7,30.29,North,360,0.0,2.0,82,0.00,,---,0.00,VWS V14.00,2013-10-30 01:50:00,
2013-10-29 21:55:00,57.0,51.6,30.29,North,5,0.0,2.0,82,0.00,,---,0.00,VWS V14.00,2013-10-30 01:55:00,
2013-10-29 22:00:00,56.9,51.5,30.29,North,5,0.0,2.0,82,0.00,,---,0.00,VWS V14.00,2013-10-30 02:00:00,
2013-10-29 22:05:00,56.8,51.4,30.29,North,5,0.0,2.0,82,0.00,,---,0.00,VWS V14.00,2013-10-30 02:05:00,
2013-10-29 22:10:00,56.6,51.2,30.29,North,5,0.0,0.0,82,0.00,,---,0.00,VWS V14.00,2013-10-30 02:10:00,
2013-10-29 22:15:00,56.5,51.4,30.29,North,5,0.0,0.0,83,0.00,,---,0.00,VWS V14.00,2013-10-30 02:15:00,
2013-10-29 22:20:00,56.2,51.1,30.30,North,5,0.0,0.0,83,0.00,,---,0.00,VWS V14.00,2013-10-30 02:20:00,
2013-10-29 22:25:00,56.0,51.2,30.30,North,360,0.0,0.0,84,0.00,,---,0.00,VWS V14.00,2013-10-30 02:25:00,
2013-10-29 22:30:00,55.7,51.0,30.30,North,5,0.0,0.0,84,0.00,,---,0.00,VWS V14.00,2013-10-30 02:30:00,
2013-10-29 22:35:00,55.5,51.1,30.30,North,5,0.0,0.0,85,0.00,,---,0.00,VWS V14.00,2013-10-30 02:35:00,
2013-10-29 22:40:00,55.3,51.2,30.31,North,360,0.0,0.0,86,0.00,,---,0.00,VWS V14.00,2013-10-30 02:40:00,
2013-10-29 22:45:00,55.2,51.1,30.31,North,5,0.0,0.0,86,0.00,,---,0.00,VWS V14.00,2013-10-30 02:45:00,
2013-10-29 22:50:00,55.1,51.0,30.31,North,5,0.0,0.0,86,0.00,,---,0.00,VWS V14.00,2013-10-30 02:50:00,
2013-10-29 22:55:00,55.0,51.2,30.31,North,5,0.0,0.0,87,0.00,,---,0.00,VWS V14.00,2013-10-30 02:55:00,
2013-10-29 23:00:00,55.0,51.2,30.31,North,5,0.0,0.0,87,0.00,,---,0.00,VWS V14.00,2013-10-30 03:00:00,
2013-10-29 23:05:00,54.9,51.1,30.31,North,360,0.0,0.0,87,0.00,,---,0.00,VWS V14.00,2013-10-30 03:05:00,
2013-10-29 23:10:00,54.9,51.1,30.29,North,5,0.0,0.0,87,0.00,,---,0.00,VWS V14.00,2013-10-30 03:10:00,
2013-10-29 23:15:00,54.8,51.0,30.28,North,5,0.0,0.0,87,0.00,,---,0.00,VWS V14.00,2013-10-30 03:15:00,
2013-10-29 23:20:00,54.7,50.9,30.29,North,360,0.0,0.0,87,0.00,,---,0.00,VWS V14.00,2013-10-30 03:20:00,
2013-10-29 23:25:00,54.7,50.9,30.28,North,360,0.0,0.0,87,0.00,,---,0.00,VWS V14.00,2013-10-30 03:25:00,
2013-10-29 23:30:00,54.7,50.9,30.29,North,5,0.0,0.0,87,0.00,,---,0.00,VWS V14.00,2013-10-30 03:30:00,
2013-10-29 23:35:00,54.6,50.8,30.29,North,5,0.0,0.0,87,0.00,,---,0.00,VWS V14.00,2013-10-30 03:35:00,
2013-10-29 23:40:00,54.7,51.2,30.29,North,5,0.0,0.0,88,0.00,,---,0.00,VWS V14.00,2013-10-30 03:40:00,
2013-10-29 23:45:00,54.7,51.2,30.29,North,360,0.0,0.0,88,0.00,,---,0.00,VWS V14.00,2013-10-30 03:45:00,
2013-10-29 23:50:00,54.7,51.2,30.29,North,360,0.0,0.0,88,0.00,,---,0.00,VWS V14.00,2013-10-30 03:50:00,
2013-10-29 23:55:00,54.7,51.2,30.29,North,5,0.0,0.0,88,0.00,,---,0.00,VWS V14.00,2013-10-30 03:55:00,